Location: Oberkirch
(48.5323°N, 8.0787°E)
Time: 14:39:10
(UTC+00:00)

Vanguard 3 - Pass Details

Date: 23 February 2026
Orbit: 507 x 3205 km, 33.3° (Epoch: 5 March)

Event Time Altitude Azimuth Distance (km) Brightness Sun altitude
Rises 17:43:05 0° 260° (W) 5,059 13.8 -7.5°
Reaches altitude 10° 17:48:10 10° 245° (WSW) 3,494 11.7 -8.4°
Maximum altitude 17:53:23 18° 207° (SSW) 2,344 9.9 -9.2°
Drops below altitude 10° 17:57:16 10° 165° (SSE) 2,459 9.5 -9.9°
Sets 18:00:03 0° 145° (SE) 3,102 9.8 -10.3°
